Time,TemperatureF,DewpointF,PressureIn,WindDirection,WindDirectionDegrees,WindSpeedMPH,WindSpeedGustMPH,Humidity,HourlyPrecipIn,Conditions,Clouds,dailyrainin,SoftwareType,DateUTC
2013-04-11 00:01:00,60.2,59.3,29.67,ENE,74,0.0,0.0,97,0.00,,,1.24,Wunderground v.1.15,2013-04-11 05:01:00,
2013-04-11 00:06:00,60.3,59.4,29.68,ENE,74,0.0,0.0,97,0.00,,,0.00,Wunderground v.1.15,2013-04-11 05:06:00,
2013-04-11 00:11:00,60.3,59.4,29.68,ENE,74,0.0,0.0,97,0.00,,,0.00,Wunderground v.1.15,2013-04-11 05:11:00,
2013-04-11 00:16:00,60.3,59.4,29.68,ENE,73,0.0,0.0,97,0.00,,,0.00,Wunderground v.1.15,2013-04-11 05:16:00,
2013-04-11 00:21:00,60.4,59.5,29.68,ENE,74,0.0,0.0,97,0.00,,,0.00,Wunderground v.1.15,2013-04-11 05:21:00,
2013-04-11 00:26:00,60.4,59.5,29.68,ENE,73,0.0,0.0,97,0.00,,,0.00,Wunderground v.1.15,2013-04-11 05:26:00,
2013-04-11 00:31:00,60.4,59.5,29.68,ENE,73,0.0,0.0,97,0.00,,,0.00,Wunderground v.1.15,2013-04-11 05:31:00,
2013-04-11 00:36:00,60.5,59.6,29.67,ENE,73,0.0,0.0,97,0.00,,,0.00,Wunderground v.1.15,2013-04-11 05:36:00,
2013-04-11 00:51:00,60.5,59.6,29.66,ENE,74,0.0,0.0,97,0.00,,,0.00,Wunderground v.1.15,2013-04-11 05:51:00,
2013-04-11 01:01:00,60.6,59.7,29.66,ENE,73,0.0,0.0,97,0.00,,,0.00,Wunderground v.1.15,2013-04-11 06:01:00,
2013-04-11 01:06:00,60.5,59.6,29.66,ENE,73,0.0,0.0,97,0.00,,,0.00,Wunderground v.1.15,2013-04-11 06:06:00,
2013-04-11 01:16:00,60.6,59.7,29.67,ENE,74,0.0,0.0,97,0.00,,,0.00,Wunderground v.1.15,2013-04-11 06:16:00,
2013-04-11 01:41:00,60.6,59.7,29.67,West,262,0.0,1.0,97,0.00,,,0.00,Wunderground v.1.15,2013-04-11 06:41:00,
2013-04-11 01:51:00,57.8,55.5,29.68,WNW,291,3.0,3.0,92,0.00,,,0.01,Wunderground v.1.15,2013-04-11 06:51:00,
2013-04-11 01:56:00,56.8,54.8,29.68,ENE,58,2.0,3.0,93,0.00,,,0.01,Wunderground v.1.15,2013-04-11 06:56:00,
2013-04-11 02:01:00,55.9,53.9,29.67,WNW,301,1.0,1.0,93,0.00,,,0.01,Wunderground v.1.15,2013-04-11 07:01:00,
2013-04-11 02:06:00,55.0,52.4,29.67,WSW,243,1.0,2.0,91,0.00,,,0.01,Wunderground v.1.15,2013-04-11 07:06:00,
2013-04-11 02:11:00,53.9,51.0,29.67,WNW,297,2.0,4.0,90,0.00,,,0.01,Wunderground v.1.15,2013-04-11 07:11:00,
2013-04-11 02:21:00,52.8,50.5,29.67,WSW,240,3.0,3.0,92,0.00,,,0.01,Wunderground v.1.15,2013-04-11 07:21:00,
2013-04-11 02:31:00,52.2,50.2,29.67,NW,316,2.0,2.0,93,0.00,,,0.01,Wunderground v.1.15,2013-04-11 07:31:00,
2013-04-11 02:36:00,52.0,50.0,29.67,NNE,27,2.0,3.0,93,0.00,,,0.01,Wunderground v.1.15,2013-04-11 07:36:00,
2013-04-11 02:41:00,51.6,49.4,29.66,WNW,297,2.0,4.0,92,0.00,,,0.01,Wunderground v.1.15,2013-04-11 07:41:00,
2013-04-11 02:46:00,51.3,49.3,29.67,WNW,300,3.0,4.0,93,0.00,,,0.01,Wunderground v.1.15,2013-04-11 07:46:00,
2013-04-11 03:01:00,50.7,48.5,29.67,NW,304,2.0,2.0,92,0.00,,,0.01,Wunderground v.1.15,2013-04-11 08:01:00,
2013-04-11 03:11:00,50.3,48.1,29.67,West,267,2.0,2.0,92,0.00,,,0.01,Wunderground v.1.15,2013-04-11 08:11:00,
2013-04-11 03:21:00,50.1,48.2,29.68,West,260,2.0,2.0,93,0.00,,,0.01,Wunderground v.1.15,2013-04-11 08:21:00,
2013-04-11 03:26:00,50.1,48.2,29.68,West,280,1.0,2.0,93,0.00,,,0.01,Wunderground v.1.15,2013-04-11 08:26:00,
2013-04-11 03:31:00,50.1,48.2,29.67,WNW,293,1.0,2.0,93,0.00,,,0.01,Wunderground v.1.15,2013-04-11 08:31:00,
2013-04-11 03:41:00,49.9,48.2,29.67,South,176,1.0,1.0,94,0.00,,,0.01,Wunderground v.1.15,2013-04-11 08:41:00,
2013-04-11 03:56:00,49.7,47.8,29.68,SW,228,2.0,2.0,93,0.00,,,0.01,Wunderground v.1.15,2013-04-11 08:56:00,
2013-04-11 04:06:00,49.5,47.3,29.67,WNW,293,2.0,2.0,92,0.00,,,0.01,Wunderground v.1.15,2013-04-11 09:06:00,
2013-04-11 04:16:00,49.3,47.1,29.67,WSW,255,2.0,2.0,92,0.00,,,0.01,Wunderground v.1.15,2013-04-11 09:16:00,
2013-04-11 04:26:00,49.2,47.0,29.68,WSW,255,2.0,4.0,92,0.00,,,0.01,Wunderground v.1.15,2013-04-11 09:26:00,
2013-04-11 04:31:00,49.2,47.3,29.68,WSW,249,2.0,2.0,93,0.00,,,0.01,Wunderground v.1.15,2013-04-11 09:31:00,
2013-04-11 04:36:00,49.2,47.3,29.68,WNW,282,1.0,2.0,93,0.00,,,0.01,Wunderground v.1.15,2013-04-11 09:36:00,
2013-04-11 04:41:00,49.1,47.2,29.68,NW,305,2.0,2.0,93,0.00,,,0.01,Wunderground v.1.15,2013-04-11 09:41:00,
2013-04-11 04:46:00,49.0,46.8,29.68,West,267,2.0,2.0,92,0.00,,,0.01,Wunderground v.1.15,2013-04-11 09:46:00,
2013-04-11 04:56:00,48.9,46.7,29.68,WNW,291,2.0,2.0,92,0.00,,,0.01,Wunderground v.1.15,2013-04-11 09:56:00,
2013-04-11 05:06:00,48.7,46.5,29.68,West,272,2.0,4.0,92,0.00,,,0.01,Wunderground v.1.15,2013-04-11 10:06:00,
2013-04-11 05:11:00,48.5,46.3,29.68,NW,312,2.0,2.0,92,0.00,,,0.01,Wunderground v.1.15,2013-04-11 10:11:00,
2013-04-11 05:16:00,48.4,46.2,29.68,West,278,2.0,2.0,92,0.00,,,0.01,Wunderground v.1.15,2013-04-11 10:16:00,
2013-04-11 05:26:00,48.3,46.1,29.69,SSW,211,1.0,1.0,92,0.00,,,0.01,Wunderground v.1.15,2013-04-11 10:26:00,
2013-04-11 05:31:00,48.3,46.1,29.69,WSW,255,1.0,1.0,92,0.00,,,0.01,Wunderground v.1.15,2013-04-11 10:31:00,
2013-04-11 05:46:00,47.9,46.0,29.69,WSW,239,1.0,4.0,93,0.00,,,0.01,Wunderground v.1.15,2013-04-11 10:46:00,
2013-04-11 06:01:00,47.5,45.3,29.69,NW,304,1.0,2.0,92,0.00,,,0.01,Wunderground v.1.15,2013-04-11 11:01:00,
2013-04-11 06:06:00,47.5,45.3,29.68,South,184,2.0,3.0,92,0.00,,,0.01,Wunderground v.1.15,2013-04-11 11:06:00,
2013-04-11 06:16:00,47.3,44.8,29.68,SSE,155,2.0,3.0,91,0.00,,,0.01,Wunderground v.1.15,2013-04-11 11:16:00,
2013-04-11 06:26:00,47.3,44.8,29.70,NNE,29,1.0,2.0,91,0.00,,,0.01,Wunderground v.1.15,2013-04-11 11:26:00,
2013-04-11 06:31:00,47.3,44.8,29.70,West,273,0.0,1.0,91,0.00,,,0.01,Wunderground v.1.15,2013-04-11 11:31:00,
2013-04-11 06:36:00,47.3,44.8,29.70,WSW,242,1.0,1.0,91,0.00,,,0.01,Wunderground v.1.15,2013-04-11 11:36:00,
2013-04-11 06:41:00,47.3,44.5,29.72,West,276,1.0,4.0,90,0.00,,,0.01,Wunderground v.1.15,2013-04-11 11:41:00,
2013-04-11 06:46:00,47.2,44.4,29.71,West,281,2.0,4.0,90,0.00,,,0.01,Wunderground v.1.15,2013-04-11 11:46:00,
2013-04-11 06:56:00,47.2,44.4,29.74,WNW,298,2.0,2.0,90,0.00,,,0.01,Wunderground v.1.15,2013-04-11 11:56:00,
2013-04-11 07:01:00,47.2,44.1,29.74,NW,319,1.0,5.0,89,0.00,,,0.01,Wunderground v.1.15,2013-04-11 12:01:00,
2013-04-11 07:06:00,47.0,43.9,29.74,North,353,1.0,5.0,89,0.00,,,0.01,Wunderground v.1.15,2013-04-11 12:06:00,
2013-04-11 07:11:00,46.9,44.1,29.73,West,273,2.0,2.0,90,0.00,,,0.01,Wunderground v.1.15,2013-04-11 12:11:00,
2013-04-11 07:21:00,46.7,43.6,29.73,NW,319,2.0,3.0,89,0.00,,,0.01,Wunderground v.1.15,2013-04-11 12:21:00,
2013-04-11 07:26:00,46.5,43.4,29.73,WNW,290,3.0,5.0,89,0.00,,,0.01,Wunderground v.1.15,2013-04-11 12:26:00,
2013-04-11 07:31:00,46.2,43.1,29.71,SSE,166,3.0,3.0,89,0.00,,,0.01,Wunderground v.1.15,2013-04-11 12:31:00,
2013-04-11 07:41:00,46.1,42.7,29.71,WSW,242,2.0,3.0,88,0.00,,,0.01,Wunderground v.1.15,2013-04-11 12:41:00,
2013-04-11 07:46:00,46.2,43.4,29.71,NNE,18,1.0,3.0,90,0.00,,,0.01,Wunderground v.1.15,2013-04-11 12:46:00,
2013-04-11 07:51:00,46.3,42.6,29.71,WNW,299,1.0,1.0,87,0.00,,,0.01,Wunderground v.1.15,2013-04-11 12:51:00,
2013-04-11 07:56:00,46.2,42.5,29.72,WNW,297,1.0,1.0,87,0.00,,,0.01,Wunderground v.1.15,2013-04-11 12:56:00,
2013-04-11 08:11:00,46.3,42.3,29.72,West,266,1.0,2.0,86,0.00,,,0.01,Wunderground v.1.15,2013-04-11 13:11:00,
2013-04-11 08:21:00,46.4,43.0,29.72,SE,126,1.0,1.0,88,0.00,,,0.01,Wunderground v.1.15,2013-04-11 13:21:00,
2013-04-11 08:36:00,46.3,42.3,29.72,West,265,1.0,1.0,86,0.00,,,0.01,Wunderground v.1.15,2013-04-11 13:36:00,
2013-04-11 08:41:00,46.3,42.3,29.72,WNW,295,2.0,2.0,86,0.00,,,0.01,Wunderground v.1.15,2013-04-11 13:41:00,
2013-04-11 08:46:00,46.3,42.3,29.73,SSW,210,2.0,2.0,86,0.00,,,0.01,Wunderground v.1.15,2013-04-11 13:46:00,
2013-04-11 08:51:00,46.3,42.3,29.74,WNW,290,1.0,3.0,86,0.00,,,0.01,Wunderground v.1.15,2013-04-11 13:51:00,
2013-04-11 08:56:00,46.3,42.3,29.72,WSW,242,1.0,3.0,86,0.00,,,0.01,Wunderground v.1.15,2013-04-11 13:56:00,
2013-04-11 09:01:00,46.3,42.3,29.74,NW,311,2.0,2.0,86,0.00,,,0.01,Wunderground v.1.15,2013-04-11 14:01:00,
2013-04-11 09:06:00,46.3,42.3,29.73,NW,315,2.0,2.0,86,0.00,,,0.01,Wunderground v.1.15,2013-04-11 14:06:00,
2013-04-11 09:11:00,46.4,42.7,29.73,WSW,248,1.0,1.0,87,0.00,,,0.01,Wunderground v.1.15,2013-04-11 14:11:00,
2013-04-11 09:16:00,46.4,42.7,29.73,SSW,208,1.0,2.0,87,0.00,,,0.01,Wunderground v.1.15,2013-04-11 14:16:00,
2013-04-11 09:21:00,46.3,42.6,29.72,NNW,328,1.0,1.0,87,0.00,,,0.01,Wunderground v.1.15,2013-04-11 14:21:00,
2013-04-11 09:31:00,46.1,42.4,29.72,NW,312,1.0,1.0,87,0.00,,,0.01,Wunderground v.1.15,2013-04-11 14:31:00,
2013-04-11 09:46:00,46.7,42.1,29.73,WSW,254,1.0,1.0,84,0.00,,,0.01,Wunderground v.1.15,2013-04-11 14:46:00,
2013-04-11 09:51:00,46.9,42.3,29.73,WSW,243,1.0,1.0,84,0.00,,,0.01,Wunderground v.1.15,2013-04-11 14:51:00,
2013-04-11 09:56:00,46.9,41.7,29.73,WSW,239,1.0,2.0,82,0.00,,,0.01,Wunderground v.1.15,2013-04-11 14:56:00,
2013-04-11 10:01:00,46.9,41.7,29.73,West,263,2.0,2.0,82,0.00,,,0.01,Wunderground v.1.15,2013-04-11 15:01:00,
2013-04-11 10:11:00,47.4,42.5,29.73,West,270,1.0,1.0,83,0.00,,,0.01,Wunderground v.1.15,2013-04-11 15:11:00,
2013-04-11 10:21:00,47.5,41.6,29.74,SW,235,1.0,3.0,80,0.00,,,0.01,Wunderground v.1.15,2013-04-11 15:21:00,
2013-04-11 10:31:00,47.5,41.6,29.74,WSW,255,1.0,2.0,80,0.00,,,0.01,Wunderground v.1.15,2013-04-11 15:31:00,
2013-04-11 10:41:00,47.3,41.4,29.73,WNW,297,1.0,1.0,80,0.00,,,0.01,Wunderground v.1.15,2013-04-11 15:41:00,
2013-04-11 10:46:00,47.3,41.4,29.73,North,356,1.0,1.0,80,0.00,,,0.01,Wunderground v.1.15,2013-04-11 15:46:00,
2013-04-11 10:51:00,47.3,41.4,29.74,WNW,300,1.0,2.0,80,0.00,,,0.01,Wunderground v.1.15,2013-04-11 15:51:00,
2013-04-11 11:01:00,47.0,40.8,29.75,West,271,1.0,2.0,79,0.00,,,0.01,Wunderground v.1.15,2013-04-11 16:01:00,
2013-04-11 11:06:00,46.9,41.1,29.75,South,174,1.0,2.0,80,0.00,,,0.01,Wunderground v.1.15,2013-04-11 16:06:00,
2013-04-11 11:11:00,47.0,40.8,29.74,South,187,1.0,1.0,79,0.00,,,0.01,Wunderground v.1.15,2013-04-11 16:11:00,
2013-04-11 11:21:00,47.0,41.8,29.75,West,278,1.0,1.0,82,0.00,,,0.01,Wunderground v.1.15,2013-04-11 16:21:00,
2013-04-11 11:31:00,47.4,42.2,29.75,SSE,149,0.0,0.0,82,0.00,,,0.01,Wunderground v.1.15,2013-04-11 16:31:00,
2013-04-11 11:46:00,47.8,40.9,29.76,WNW,290,1.0,3.0,77,0.00,,,0.01,Wunderground v.1.15,2013-04-11 16:46:00,
2013-04-11 11:56:00,47.7,41.8,29.75,WSW,252,1.0,2.0,80,0.00,,,0.01,Wunderground v.1.15,2013-04-11 16:56:00,
2013-04-11 12:06:00,46.7,41.5,29.75,NNW,335,1.0,3.0,82,0.00,,,0.01,Wunderground v.1.15,2013-04-11 17:06:00,
2013-04-11 12:11:00,46.3,41.7,29.76,SSE,156,1.0,1.0,84,0.00,,,0.01,Wunderground v.1.15,2013-04-11 17:11:00,
2013-04-11 12:16:00,46.3,41.1,29.75,West,276,1.0,2.0,82,0.00,,,0.01,Wunderground v.1.15,2013-04-11 17:16:00,
2013-04-11 12:26:00,46.6,41.4,29.75,SSE,162,1.0,3.0,82,0.00,,,0.01,Wunderground v.1.15,2013-04-11 17:26:00,
2013-04-11 12:31:00,46.9,41.1,29.75,NW,315,1.0,1.0,80,0.00,,,0.01,Wunderground v.1.15,2013-04-11 17:31:00,
2013-04-11 12:36:00,47.1,40.9,29.75,South,191,1.0,3.0,79,0.00,,,0.01,Wunderground v.1.15,2013-04-11 17:36:00,
2013-04-11 12:41:00,46.8,40.6,29.75,WNW,294,2.0,2.0,79,0.00,,,0.01,Wunderground v.1.15,2013-04-11 17:41:00,
2013-04-11 12:46:00,46.8,41.0,29.75,SW,219,2.0,2.0,80,0.00,,,0.01,Wunderground v.1.15,2013-04-11 17:46:00,
2013-04-11 12:51:00,46.9,41.4,29.75,WNW,299,1.0,1.0,81,0.00,,,0.01,Wunderground v.1.15,2013-04-11 17:51:00,
2013-04-11 12:56:00,47.0,41.1,29.75,SW,224,1.0,1.0,80,0.00,,,0.01,Wunderground v.1.15,2013-04-11 17:56:00,
2013-04-11 13:01:00,46.8,40.6,29.75,West,274,1.0,1.0,79,0.00,,,0.01,Wunderground v.1.15,2013-04-11 18:01:00,
2013-04-11 13:06:00,46.5,40.7,29.74,North,349,1.0,1.0,80,0.00,,,0.01,Wunderground v.1.15,2013-04-11 18:06:00,
2013-04-11 13:16:00,46.4,40.9,29.74,West,276,1.0,1.0,81,0.00,,,0.01,Wunderground v.1.15,2013-04-11 18:16:00,
2013-04-11 13:26:00,45.7,40.5,29.74,SSE,162,1.0,6.0,82,0.00,,,0.01,Wunderground v.1.15,2013-04-11 18:26:00,
2013-04-11 13:31:00,45.8,40.9,29.73,NW,311,1.0,4.0,83,0.00,,,0.01,Wunderground v.1.15,2013-04-11 18:31:00,
2013-04-11 13:41:00,45.4,40.8,29.73,West,278,2.0,2.0,84,0.00,,,0.01,Wunderground v.1.15,2013-04-11 18:41:00,
2013-04-11 13:46:00,45.5,40.3,29.73,WSW,253,1.0,2.0,82,0.00,,,0.01,Wunderground v.1.15,2013-04-11 18:46:00,
2013-04-11 13:56:00,46.1,39.6,29.73,NW,308,2.0,3.0,78,0.00,,,0.01,Wunderground v.1.15,2013-04-11 18:56:00,
2013-04-11 14:01:00,46.0,39.9,29.73,WNW,285,2.0,2.0,79,0.00,,,0.01,Wunderground v.1.15,2013-04-11 19:01:00,
2013-04-11 14:06:00,46.5,40.3,29.74,West,270,1.0,2.0,79,0.00,,,0.01,Wunderground v.1.15,2013-04-11 19:06:00,
2013-04-11 14:16:00,47.5,39.6,29.73,NW,316,1.0,1.0,74,0.00,,,0.01,Wunderground v.1.15,2013-04-11 19:16:00,
2013-04-11 14:21:00,47.5,40.0,29.72,South,169,1.0,1.0,75,0.00,,,0.01,Wunderground v.1.15,2013-04-11 19:21:00,
2013-04-11 14:26:00,47.8,39.9,29.73,WNW,302,1.0,1.0,74,0.00,,,0.01,Wunderground v.1.15,2013-04-11 19:26:00,
2013-04-11 14:31:00,47.9,40.4,29.74,West,277,1.0,1.0,75,0.00,,,0.01,Wunderground v.1.15,2013-04-11 19:31:00,
2013-04-11 14:36:00,47.9,39.7,29.73,WSW,257,1.0,1.0,73,0.00,,,0.01,Wunderground v.1.15,2013-04-11 19:36:00,
2013-04-11 14:46:00,48.3,39.0,29.72,South,176,1.0,1.0,70,0.00,,,0.01,Wunderground v.1.15,2013-04-11 19:46:00,
2013-04-11 15:01:00,48.7,39.0,29.72,ENE,77,2.0,2.0,69,0.00,,,0.01,Wunderground v.1.15,2013-04-11 20:01:00,
2013-04-11 15:11:00,49.6,39.1,29.73,North,1,1.0,5.0,67,0.00,,,0.01,Wunderground v.1.15,2013-04-11 20:11:00,
2013-04-11 15:16:00,49.2,39.1,29.73,West,264,2.0,5.0,68,0.00,,,0.01,Wunderground v.1.15,2013-04-11 20:16:00,
2013-04-11 15:26:00,48.5,39.5,29.73,NNE,22,1.0,2.0,71,0.00,,,0.01,Wunderground v.1.15,2013-04-11 20:26:00,
2013-04-11 15:36:00,48.7,38.2,29.72,West,259,2.0,2.0,67,0.00,,,0.01,Wunderground v.1.15,2013-04-11 20:36:00,
2013-04-11 15:51:00,49.1,38.6,29.72,WNW,302,1.0,1.0,67,0.00,,,0.01,Wunderground v.1.15,2013-04-11 20:51:00,
2013-04-11 15:56:00,49.0,38.5,29.71,West,263,1.0,1.0,67,0.00,,,0.01,Wunderground v.1.15,2013-04-11 20:56:00,
2013-04-11 16:01:00,48.5,38.4,29.71,NW,304,2.0,2.0,68,0.00,,,0.01,Wunderground v.1.15,2013-04-11 21:01:00,
2013-04-11 16:11:00,47.7,38.0,29.72,SSE,155,2.0,2.0,69,0.00,,,0.01,Wunderground v.1.15,2013-04-11 21:11:00,
2013-04-11 16:21:00,48.0,37.6,29.72,WNW,286,1.0,1.0,67,0.00,,,0.01,Wunderground v.1.15,2013-04-11 21:21:00,
2013-04-11 16:36:00,47.6,37.2,29.72,North,358,2.0,4.0,67,0.00,,,0.01,Wunderground v.1.15,2013-04-11 21:36:00,
2013-04-11 16:46:00,47.5,37.1,29.73,WNW,297,1.0,3.0,67,0.00,,,0.01,Wunderground v.1.15,2013-04-11 21:46:00,
2013-04-11 16:51:00,47.2,36.4,29.73,NW,323,1.0,5.0,66,0.00,,,0.01,Wunderground v.1.15,2013-04-11 21:51:00,
2013-04-11 16:56:00,47.0,36.6,29.72,WNW,290,2.0,5.0,67,0.00,,,0.01,Wunderground v.1.15,2013-04-11 21:56:00,
2013-04-11 17:06:00,46.6,37.3,29.73,West,276,1.0,2.0,70,0.00,,,0.01,Wunderground v.1.15,2013-04-11 22:06:00,
2013-04-11 17:11:00,46.3,36.7,29.72,WNW,297,1.0,2.0,69,0.00,,,0.01,Wunderground v.1.15,2013-04-11 22:11:00,
2013-04-11 17:21:00,46.3,36.7,29.72,West,277,1.0,1.0,69,0.00,,,0.01,Wunderground v.1.15,2013-04-11 22:21:00,
2013-04-11 17:26:00,46.3,36.3,29.72,West,267,1.0,1.0,68,0.00,,,0.01,Wunderground v.1.15,2013-04-11 22:26:00,
2013-04-11 17:41:00,45.6,35.6,29.73,West,263,1.0,1.0,68,0.00,,,0.01,Wunderground v.1.15,2013-04-11 22:41:00,
2013-04-11 17:51:00,45.3,35.0,29.74,East,80,2.0,2.0,67,0.00,,,0.01,Wunderground v.1.15,2013-04-11 22:51:00,
2013-04-11 17:56:00,45.3,35.4,29.75,NW,309,2.0,2.0,68,0.00,,,0.01,Wunderground v.1.15,2013-04-11 22:56:00,
2013-04-11 18:06:00,44.9,33.8,29.75,West,274,2.0,8.0,65,0.00,,,0.01,Wunderground v.1.15,2013-04-11 23:06:00,
2013-04-11 18:11:00,44.8,34.1,29.74,SW,231,3.0,5.0,66,0.00,,,0.01,Wunderground v.1.15,2013-04-11 23:11:00,
2013-04-11 18:16:00,44.8,34.1,29.75,WNW,300,2.0,5.0,66,0.00,,,0.01,Wunderground v.1.15,2013-04-11 23:16:00,
2013-04-11 18:26:00,44.4,35.6,29.75,WNW,301,1.0,2.0,71,0.00,,,0.01,Wunderground v.1.15,2013-04-11 23:26:00,
2013-04-11 18:41:00,43.9,34.7,29.76,NW,318,0.0,2.0,70,0.00,,,0.01,Wunderground v.1.15,2013-04-11 23:41:00,
2013-04-11 18:51:00,43.5,34.7,29.76,WNW,287,1.0,1.0,71,0.00,,,0.01,Wunderground v.1.15,2013-04-11 23:51:00,
2013-04-11 18:56:00,43.4,34.6,29.77,WNW,302,0.0,1.0,71,0.00,,,0.01,Wunderground v.1.15,2013-04-11 23:56:00,
2013-04-11 19:01:00,43.3,34.5,29.76,NNW,347,0.0,1.0,71,0.00,,,0.01,Wunderground v.1.15,2013-04-12 00:01:00,
2013-04-11 19:06:00,43.3,34.5,29.76,West,262,1.0,1.0,71,0.00,,,0.01,Wunderground v.1.15,2013-04-12 00:06:00,
2013-04-11 19:11:00,43.2,34.1,29.76,NW,304,1.0,2.0,70,0.00,,,0.01,Wunderground v.1.15,2013-04-12 00:11:00,
2013-04-11 19:21:00,43.1,34.0,29.77,NW,317,1.0,1.0,70,0.00,,,0.01,Wunderground v.1.15,2013-04-12 00:21:00,
2013-04-11 19:36:00,42.9,34.1,29.77,WSW,250,1.0,1.0,71,0.00,,,0.01,Wunderground v.1.15,2013-04-12 00:36:00,
2013-04-11 19:46:00,42.8,34.0,29.76,SW,231,0.0,1.0,71,0.00,,,0.01,Wunderground v.1.15,2013-04-12 00:46:00,
2013-04-11 19:56:00,42.7,33.6,29.76,West,276,1.0,3.0,70,0.00,,,0.01,Wunderground v.1.15,2013-04-12 00:56:00,
2013-04-11 20:11:00,42.4,33.7,29.77,WNW,293,2.0,2.0,71,0.00,,,0.01,Wunderground v.1.15,2013-04-12 01:11:00,
2013-04-11 20:16:00,42.4,33.7,29.77,WSW,245,2.0,2.0,71,0.00,,,0.01,Wunderground v.1.15,2013-04-12 01:16:00,
2013-04-11 20:21:00,42.4,33.7,29.77,NW,304,1.0,1.0,71,0.00,,,0.01,Wunderground v.1.15,2013-04-12 01:21:00,
2013-04-11 20:31:00,42.4,33.3,29.77,WNW,299,1.0,2.0,70,0.00,,,0.01,Wunderground v.1.15,2013-04-12 01:31:00,
2013-04-11 20:41:00,42.2,33.1,29.78,WSW,253,2.0,4.0,70,0.00,,,0.01,Wunderground v.1.15,2013-04-12 01:41:00,
2013-04-11 20:46:00,42.1,33.0,29.78,WNW,297,2.0,4.0,70,0.00,,,0.01,Wunderground v.1.15,2013-04-12 01:46:00,
2013-04-11 20:51:00,42.1,33.0,29.79,SSW,210,1.0,1.0,70,0.00,,,0.01,Wunderground v.1.15,2013-04-12 01:51:00,
2013-04-11 20:56:00,42.0,32.2,29.79,WNW,302,2.0,4.0,68,0.00,,,0.01,Wunderground v.1.15,2013-04-12 01:56:00,
2013-04-11 21:06:00,41.9,32.1,29.79,SSE,160,2.0,2.0,68,0.00,,,0.01,Wunderground v.1.15,2013-04-12 02:06:00,
2013-04-11 21:11:00,41.8,31.6,29.79,West,260,2.0,2.0,67,0.00,,,0.01,Wunderground v.1.15,2013-04-12 02:11:00,
2013-04-11 21:26:00,41.8,31.3,29.80,WSW,243,1.0,5.0,66,0.00,,,0.01,Wunderground v.1.15,2013-04-12 02:26:00,
2013-04-11 21:36:00,41.7,31.2,29.80,West,277,1.0,1.0,66,0.00,,,0.01,Wunderground v.1.15,2013-04-12 02:36:00,
2013-04-11 21:46:00,41.7,31.2,29.80,NW,307,0.0,0.0,66,0.00,,,0.01,Wunderground v.1.15,2013-04-12 02:46:00,
2013-04-11 21:56:00,41.7,31.5,29.80,WNW,288,1.0,1.0,67,0.00,,,0.01,Wunderground v.1.15,2013-04-12 02:56:00,
2013-04-11 22:01:00,41.6,31.4,29.80,SW,226,0.0,0.0,67,0.00,,,0.01,Wunderground v.1.15,2013-04-12 03:01:00,
2013-04-11 22:06:00,41.5,31.4,29.80,WSW,243,0.0,0.0,67,0.00,,,0.01,Wunderground v.1.15,2013-04-12 03:06:00,
2013-04-11 22:11:00,41.3,31.5,29.80,WSW,243,0.0,0.0,68,0.00,,,0.01,Wunderground v.1.15,2013-04-12 03:11:00,
2013-04-11 22:26:00,41.1,31.7,29.80,WNW,285,0.0,0.0,69,0.00,,,0.01,Wunderground v.1.15,2013-04-12 03:26:00,
2013-04-11 22:31:00,41.0,31.2,29.80,SSE,163,0.0,0.0,68,0.00,,,0.01,Wunderground v.1.15,2013-04-12 03:31:00,
2013-04-11 22:36:00,40.9,31.5,29.80,SSE,165,0.0,0.0,69,0.00,,,0.01,Wunderground v.1.15,2013-04-12 03:36:00,
2013-04-11 22:46:00,40.8,31.8,29.80,SSE,163,0.0,0.0,70,0.00,,,0.01,Wunderground v.1.15,2013-04-12 03:46:00,
2013-04-11 22:56:00,40.4,31.4,29.80,SSE,163,0.0,0.0,70,0.00,,,0.01,Wunderground v.1.15,2013-04-12 03:56:00,
2013-04-11 23:01:00,40.3,31.6,29.80,West,266,0.0,0.0,71,0.00,,,0.01,Wunderground v.1.15,2013-04-12 04:01:00,
2013-04-11 23:06:00,40.2,31.9,29.80,West,269,0.0,0.0,72,0.00,,,0.01,Wunderground v.1.15,2013-04-12 04:06:00,
2013-04-11 23:11:00,40.1,31.8,29.80,West,267,0.0,0.0,72,0.00,,,0.01,Wunderground v.1.15,2013-04-12 04:11:00,
2013-04-11 23:21:00,39.9,31.9,29.80,West,267,0.0,0.0,73,0.00,,,0.01,Wunderground v.1.15,2013-04-12 04:21:00,
2013-04-11 23:26:00,39.8,32.2,29.80,West,267,0.0,0.0,74,0.00,,,0.01,Wunderground v.1.15,2013-04-12 04:26:00,
2013-04-11 23:36:00,39.6,32.3,29.80,West,267,0.0,0.0,75,0.00,,,0.01,Wunderground v.1.15,2013-04-12 04:36:00,
2013-04-11 23:41:00,39.6,32.7,29.80,West,267,0.0,0.0,76,0.00,,,0.01,Wunderground v.1.15,2013-04-12 04:41:00,
2013-04-11 23:51:00,39.7,32.8,29.79,West,267,0.0,0.0,76,0.00,,,0.01,Wunderground v.1.15,2013-04-12 04:51:00,